DW6747 Weather Reports


time (UTC)temp
C
wind
direction
speed
KPH
gust
KPH
rain 1hr
cm
rain 24hr
cm
rain mn
cm
humidity
%
barometer
mb
20260504215153 22 134 1.6 16.1 0.00 0.00 0.00 33 1010.1
20260504214208 23 189 3.2 16.1 0.00 0.00 0.00 32 1010.1
20260504213207 23 144 3.2 16.1 0.00 0.00 0.00 32 1010.1
20260504212224 23 71 1.6 12.9 0.00 0.00 0.00 34 1010.2
20260504211237 23 82 1.6 9.7 0.00 0.00 0.00 32 1010.3
20260504210255 23 148 0.0 8.0 0.00 0.00 0.00 34 1010.2
20260504205244 23 109 1.6 11.3 0.00 0.00 0.00 34 1010.3
20260504203058 23 34 0.0 1.6 0.00 0.00 0.00 36 1010.5
20260504200904 23 237 1.6 17.7 0.00 0.00 0.00 31 1010.6
20260504195842 23 194 4.8 17.7 0.00 0.00 0.00 31 1010.8
20260504194813 23 238 1.6 11.3 0.00 0.00 0.00 34 1010.9
20260504193811 23 230 1.6 14.5 0.00 0.00 0.00 34 1011.2
20260504191705 23 163 1.6 14.5 0.00 0.00 0.00 31 1011.6
20260504190645 23 147 1.6 16.1 0.00 0.00 0.00 31 1011.7
20260504185638 23 242 1.6 19.3 0.00 0.00 0.00 33 1011.9
20260504184625 23 122 1.6 19.3 0.00 0.00 0.00 32 1012.0
20260504183644 23 344 1.6 12.9 0.00 0.00 0.00 35 1012.2
20260504182706 23 315 1.6 12.9 0.00 0.00 0.00 32 1012.4
20260504181640 22 113 1.6 14.5 0.00 0.00 0.00 32 1012.4
20260504175509 22 252 1.6 14.5 0.00 0.00 0.00 31 1012.8
20260504174514 21 101 1.6 14.5 0.00 0.00 0.00 31 1013.0
20260504173452 22 161 0.0 1.6 0.00 0.00 0.00 31 1013.0
20260504172512 21 153 1.6 12.9 0.00 0.00 0.00 31 1013.2
20260504170251 21 170 1.6 6.4 0.00 0.00 0.00 34 1013.6
20260504160228 19 158 3.2 17.7 0.00 0.00 0.00 34 1014.3
20260504150845 18 215 0.0 6.4 0.00 0.00 0.00 37 1014.9
20260504140717 15 107 1.6 9.7 0.00 0.00 0.00 45 1015.1
20260504110234 6 0 0.0 0.0 0.00 0.00 0.00 84 1016.1
20260504100138 7 0 0.0 0.0 0.00 0.00 0.00 81 1016.2
20260504080740 6 0 0.0 0.0 0.00 0.00 0.00 82 1016.6
20260504050711 5 0 0.0 0.0 0.00 0.00 0.00 79 1016.8
20260504044603 5 0 0.0 0.0 0.00 0.00 0.00 80 1016.6
20260504042516 5 0 0.0 0.0 0.00 0.00 0.00 78 1016.6
20260504041506 5 0 0.0 0.0 0.00 0.00 0.00 78 1016.7
20260504040451 5 0 0.0 0.0 0.00 0.00 0.00 76 1016.7
20260504035444 5 0 0.0 0.0 0.00 0.00 0.00 77 1016.6
20260504034433 5 0 0.0 0.0 0.00 0.00 0.00 76 1016.6
20260504033400 5 0 0.0 0.0 0.00 0.00 0.00 75 1016.4
20260504032337 5 0 0.0 0.0 0.00 0.00 0.00 74 1016.3
20260504031326 6 0 0.0 0.0 0.00 0.00 0.00 71 1016.2
20260504030342 6 0 0.0 0.0 0.00 0.00 0.00 71 1016.1
20260504025308 6 0 0.0 0.0 0.00 0.00 0.00 72 1016.0
20260504024244 6 0 0.0 0.0 0.00 0.00 0.00 70 1016.1
20260504023237 6 0 0.0 0.0 0.00 0.00 0.00 68 1015.9
20260504022215 7 0 0.0 0.0 0.00 0.00 0.00 68 1016.0
20260504020054 7 0 0.0 0.0 0.00 0.00 0.00 65 1015.9
20260504013906 8 0 0.0 0.0 0.00 0.00 0.00 60 1015.8
20260504012854 8 0 0.0 0.0 0.00 0.00 0.00 57 1015.8
20260504010712 8 0 0.0 0.0 0.00 0.00 0.00 58 1015.6
20260504005725 9 0 0.0 0.0 0.00 0.00 0.00 53 1015.6
20260504004704 10 0 0.0 0.0 0.00 0.00 0.00 52 1015.4
20260504002558 11 0 0.0 0.0 0.00 0.00 0.00 52 1015.3
20260504001548 11 0 0.0 0.0 0.00 0.00 0.00 47 1015.1
20260504000608 12 0 0.0 0.0 0.00 0.00 0.00 44 1015.0
20260503235631 12 0 0.0 0.0 0.00 0.00 0.00 40 1015.0
20260503234608 12 0 0.0 0.0 0.00 0.00 0.00 42 1015.0
20260503233559 13 0 0.0 1.6 0.00 0.00 0.00 34 1014.8
20260503232536 14 74 0.0 0.0 0.00 0.00 0.00 37 1014.8
20260503230350 15 38 0.0 3.2 0.00 0.00 0.00 32 1014.6
20260503225354 15 331 0.0 3.2 0.00 0.00 0.00 29 1014.7
20260503224348 15 52 0.0 4.8 0.00 0.00 0.00 29 1014.8
20260503223359 15 272 0.0 1.6 0.00 0.00 0.00 28 1014.9
20260503222359 15 141 0.0 8.0 0.00 0.00 0.00 29 1014.8
20260503221334 15 271 0.0 8.0 0.00 0.00 0.00 29 1014.6